[[{"header":{"parameterUnit":"m.s-1","parameterCategory":1,"la1":30.2992,"la2":30.254,"lo1":-89.0895,"lo2":-89.0443,"dy":0.0025,"dx":0.0025,"nx":19,"ny":19,"refTime":"2026-04-28T03:00:00:Z","depth":0,"parameterNumber":2,"parameterNumberName":"U-component_of_WINDS"},"data":[0,0,0,-1.8124,-1.8125,-1.8136,-1.8136,-1.8151,-1.8151,0,0,0,0,0,0,0,0,0,0,0,-1.8121,-1.8121,-1.8124,-1.8125,-1.8136,-1.8136,-1.8151,-1.8151,0,0,0,0,0,0,0,0,0,0,0,-1.8121,-1.8121,-1.8121,-1.8125,-1.8136,-1.8136,-1.8151,-1.8142,0,0,0,0,0,0,0,0,0,0,-1.8131,-1.8128,-1.8121,-1.8121,-1.8125,-1.8136,-1.8136,-1.8142,-1.8143,-1.8146,0,-1.8148,0,-1.8149,-1.8152,-1.8152,0,0,0,-1.8125,-1.8127,-1.813,-1.8121,-1.8125,-1.8136,-1.8131,-1.8142,-1.8143,-1.8147,-1.8148,-1.8149,-1.815,-1.8152,-1.8152,-1.8167,-1.8167,0,0,-1.8124,-1.8123,-1.8129,-1.8131,-1.8128,-1.813,-1.8131,-1.8143,-1.8144,-1.8148,-1.8149,-1.815,-1.8152,-1.8152,-1.8167,-1.8167,0,0,0,-1.8122,-1.8122,-1.8125,-1.813,-1.8132,-1.8131,-1.8132,-1.8144,-1.8145,-1.8149,-1.815,-1.8152,-1.8152,-1.8167,-1.8167,-1.8168,0,0,0,-1.8122,-1.8121,-1.8125,-1.8124,-1.8132,-1.8138,-1.8132,-1.8144,-1.8145,-1.815,-1.8152,-1.8152,-1.8167,-1.8167,-1.8167,-1.8168,0,0,0,-1.812,-1.8121,-1.8122,-1.8124,-1.8129,-1.8138,-1.8139,-1.8144,-1.8146,-1.8152,-1.8152,-1.8167,-1.8167,-1.8167,-1.8168,-1.8171,0,0,0,-1.8118,-1.8123,-1.8122,-1.8129,-1.8129,-1.8138,-1.8139,-1.8146,-1.8152,-1.8152,-1.8167,-1.8167,-1.8167,-1.8168,-1.8171,-1.8174,-1.8175,0,0,-1.8124,-1.8124,-1.8128,-1.8127,-1.8136,-1.8136,-1.8146,-1.8152,-1.8155,-1.8163,-1.8163,-1.8167,-1.8168,-1.8171,-1.8181,-1.8182,0,0,0,-1.8129,-1.8132,-1.8134,-1.8139,-1.8144,-1.8148,-1.8154,-1.8156,-1.8163,-1.8158,-1.817,-1.817,-1.8172,-1.8174,-1.8174,-1.8176,-1.8167,-1.8167,-1.8167,-1.8135,-1.8137,-1.8144,-1.8148,-1.8152,-1.8158,-1.8162,-1.8166,-1.8168,-1.817,-1.8173,-1.8178,-1.818,-1.818,-1.8182,-1.8175,-1.8175,-1.8175,-1.8175,-1.8143,-1.8147,-1.8149,-1.8156,-1.8159,-1.8165,-1.8171,-1.8172,-1.8178,-1.8177,-1.8179,-1.8177,-1.8181,-1.8183,-1.8175,-1.8175,-1.8175,-1.8175,-1.8175,-1.8147,-1.8149,-1.8152,-1.8159,-1.8164,-1.8169,-1.8175,-1.8177,-1.818,-1.8182,-1.8185,-1.8185,-1.8185,-1.8183,-1.8183,-1.8183,-1.8183,-1.8183,-1.8183,-1.8149,-1.8152,-1.8157,-1.8163,-1.8166,-1.8171,-1.8177,-1.8181,-1.8185,-1.8187,-1.8187,-1.8188,-1.8181,-1.8179,-1.8183,-1.8183,-1.8183,-1.8183,-1.8183,-1.8157,-1.8155,-1.8162,-1.8165,-1.8173,-1.8178,-1.8181,-1.8189,-1.8192,-1.8195,-1.8196,-1.819,-1.8191,-1.819,-1.8189,-1.8196,-1.8196,-1.8196,-1.8196,-1.8159,-1.816,-1.8167,-1.8173,-1.8178,-1.8182,-1.819,-1.8195,-1.82,-1.8203,-1.8202,-1.82,-1.82,-1.8201,-1.82,-1.8198,-1.8208,-1.8208,-1.8208,-1.8164,-1.8165,-1.8171,-1.8175,-1.8181,-1.8187,-1.8194,-1.8201,-1.8207,-1.8208,-1.8205,-1.8204,-1.8201,-1.82,-1.8201,-1.82,-1.8197,0,0]},{"header":{"parameterUnit":"m.s-1","parameterCategory":1,"la1":30.2992,"la2":30.254,"lo1":-89.0895,"lo2":-89.0443,"dy":0.0025,"dx":0.0025,"nx":19,"ny":19,"refTime":"2026-04-28T03:00:00:Z","depth":0,"parameterNumber":3,"parameterNumberName":"V-component_of_WINDS"},"data":[0,0,0,4.725,4.7249,4.7231,4.7231,4.7215,4.7215,0,0,0,0,0,0,0,0,0,0,0,4.7261,4.7261,4.725,4.7249,4.7231,4.7231,4.7215,4.7215,0,0,0,0,0,0,0,0,0,0,0,4.7261,4.7261,4.7261,4.7249,4.7231,4.7231,4.7215,4.7226,0,0,0,0,0,0,0,0,0,0,4.7242,4.7259,4.7261,4.7261,4.7249,4.7231,4.7231,4.7226,4.7225,4.7227,0,4.7231,0,4.7223,4.7214,4.7214,0,0,0,4.7245,4.726,4.725,4.7261,4.7249,4.7231,4.7238,4.7225,4.7224,4.7226,4.7231,4.723,4.7223,4.7214,4.7214,4.7244,4.7244,0,0,4.7246,4.7261,4.7251,4.7249,4.7254,4.7238,4.7237,4.7225,4.7231,4.7231,4.723,4.7222,4.7214,4.7214,4.7243,4.7244,0,0,0,4.7252,4.7262,4.7251,4.725,4.7246,4.7238,4.7237,4.7232,4.7227,4.7229,4.7222,4.7214,4.7214,4.7243,4.7244,4.7278,0,0,0,4.7252,4.7266,4.7252,4.7261,4.7247,4.7239,4.7244,4.7228,4.7226,4.7222,4.7214,4.7214,4.7243,4.7243,4.7276,4.7292,0,0,0,4.726,4.7266,4.7266,4.7262,4.7255,4.7239,4.7233,4.7227,4.7222,4.7214,4.7214,4.7242,4.7243,4.7274,4.7289,4.7304,0,0,0,4.7273,4.7296,4.7267,4.7289,4.7255,4.726,4.7233,4.7236,4.7233,4.7214,4.7243,4.7243,4.7274,4.7287,4.7303,4.7322,4.733,0,0,4.731,4.7301,4.7313,4.7286,4.73,4.7262,4.728,4.7263,4.7247,4.7245,4.7246,4.7276,4.7289,4.7304,4.7373,4.738,0,0,0,4.733,4.7338,4.7339,4.7337,4.7325,4.7315,4.7293,4.7286,4.7284,4.725,4.7285,4.7292,4.73,4.7308,4.7315,4.7321,4.7248,4.7247,4.7247,4.7406,4.7385,4.7402,4.7379,4.7378,4.7355,4.7351,4.7338,4.7317,4.7325,4.7326,4.737,4.738,4.7385,4.7392,4.7332,4.7332,4.7333,4.7333,4.7459,4.7469,4.7439,4.7447,4.7424,4.7429,4.7406,4.7391,4.7392,4.7368,4.7375,4.7352,4.7393,4.7398,4.7335,4.7335,4.7334,4.7334,4.7334,4.7508,4.7509,4.75,4.7496,4.7494,4.7468,4.7471,4.7449,4.7428,4.7435,4.7432,4.7432,4.7429,4.7435,4.7435,4.7435,4.7435,4.7435,4.7435,4.7563,4.7552,4.7557,4.7545,4.7541,4.7532,4.7508,4.7502,4.7491,4.7475,4.7475,4.7453,4.7401,4.7389,4.7438,4.7437,4.7437,4.7437,4.7437,4.7628,4.761,4.7618,4.7614,4.7597,4.7597,4.7568,4.7559,4.7551,4.7553,4.7529,4.7493,4.7482,4.7477,4.7467,4.7533,4.7533,4.7533,4.7533,4.7671,4.7662,4.7666,4.7661,4.7653,4.7628,4.7636,4.7616,4.7592,4.7586,4.7573,4.7557,4.7553,4.7544,4.7537,4.7528,4.7608,4.7608,4.7608,4.771,4.77,4.7713,4.769,4.7675,4.7662,4.7669,4.7663,4.7632,4.7611,4.7581,4.7577,4.7552,4.7544,4.7526,4.7516,4.7498,0,0]}]]